Location: Caltech
(34.1382°N, 118.1253°W)
Time: 09:45:34
(UTC-08:00)

Lacrosse 5 - Visible Passes

Search period start: 24 February 2018 00:00
Search period end: 06 March 2018 00:00
Orbit: 714 x 724 km, 57.0° (Epoch: 19 February)

Date Brightness Start Highest point End Pass type
(mag) Time Alt. Az. Time Alt. Az. Time Alt. Az.
25 Feb 4.7 18:15:43 10° WNW 18:19:08 18° WSW 18:22:32 10° SSW visible
04 Mar 4.6 05:04:16 10° SSE 05:07:40 18° ESE 05:11:04 10° ENE visible
05 Mar 2.2 05:51:56 10° SSW 05:57:00 74° SE 06:02:05 10° NE visible
